Погода в Вилково

Украина / Одесская область     45°24′10″N   29°35′00″E
темп.,
°C
ветер,
м/с
пор.,
м/с
влажн.,
%
обл.,
%
осадки,
мм/ч
давл.,
гПа
погр.,
м
5 марта, пт
пт523:00+8ююз477415 0.0 1013143
02:00+7юз477626 0.0 1013116
05:00+6зюз457630 0.0 101274
08:00+7зсз356515 0.0 1012132
11:00+12зсз23480 0.0 1013480
14:00+16зюз45361 0.0 10121015
17:00+14зюз464166 0.0 1011239
20:00+11юз334965 0.0 101232
6 марта, сб
сб623:00+9сз6136216 0.0 1014344
02:00+7ссз5117935 0.0 1016501
05:00+5ссз6117398 0.0 1019821
08:00+3с796999 0.0 1023934
11:00+5с7947100 0.0 10251285
14:00+6с6836100 0.0 10251618
17:00+5с573281 0.0 10271771
20:00+3с364340 0.0 1029179
7 марта, вс
вс723:00+2с12460 0.0 103032
02:00+1зсз33540 0.0 103180
05:00−1ссз24660 0.0 103077
08:00+1з12540 0.0 1030136
11:00+5зюз57410 0.0 10281394
14:00+8з68350 0.0 10251730
17:00+7зюз68380 0.0 10231499
20:00+3ююз712590 0.0 1022345
8 марта, пн
пн823:00+3ююз487030 0.0 1021174
02:00+2юз5107462 0.0 1019241
05:00+1юз377817 0.0 1018155
08:00+2юз35729 0.0 1018277
11:00+6юз335231 0.0 1018613
14:00+9юз244165 0.0 10161179
17:00+9юз244367 0.0 10141335
20:00+5ююз387249 0.0 1015254
9 марта, вт
вт923:00+4ююз238464 0.0 101561
02:00+4з127838 0.0 101522
05:00+3с48805 0.0 1016159
08:00+3ссв610654 0.0 1018503
11:00+6ссв68510 0.0 1019898
14:00+7ссв563839 0.0 10191313
17:00+6ссв5642100 0.0 10191344
20:00+4ссв484997 0.0 1021322